Weather History for KSLE - October, 2011

Change the Weather History Date:

Sunday, October 30, 2011

  Actual Average Record
Temperature  
Mean Temperature 60 °F 49 °F  
Max Temperature 64 °F 58 °F 81 °F (1900)
Min Temperature 55 °F 41 °F 22 °F (2002)
Degree Days  
Heating Degree Days 5 16  
Month to date heating degree days 301 351  
Since 1 July heating degree days 377 516  
Cooling Degree Days 0 0  
Month to date cooling degree days 0 0  
Year to date cooling degree days 316 289  
Growing Degree Days 8 (Base 50)    
Moisture  
Dew Point 54 °F    
Average Humidity 90    
Maximum Humidity 100    
Minimum Humidity 80    
Precipitation  
Precipitation 0.12 in 0.15 in 1.23 in (1990)
Month to date precipitation 2.10 2.88  
Year to date precipitation 26.55 26.16  
Snow  
Snow 0.00 in - - ()
Month to date snowfall 0.0  
Snow Depth 0.00 in    
Sea Level Pressure  
Sea Level Pressure 30.16 in    
Wind  
Wind Speed 6 mph (South)    
Max Wind Speed 15 mph    
Max Gust Speed 22 mph    
Visibility 8 miles    
Events Rain    
T = Trace of Precipitation, MM = Missing Value Source: NWS Daily Summary

Daily Weather History Graph

Daily Weather History Graph

Search for Another Location

Airport or City:

Trip Planner

Search our weather history database for the weather conditions in past years. The results will help you decide how hot, cold, wet, or windy it might be!

Date:

Astronomy

Oct. 30, 2011 Rise Set
Actual Time 7:47 AM PDT 6:03 PM PDT
Civil Twilight 7:16 AM PDT 6:33 PM PDT
Nautical Twilight 6:42 AM PDT 7:08 PM PDT
Astronomical Twilight 6:08 AM PDT 7:42 PM PDT
Moon 12:19 PM PDT (10/30) 9:31 PM PDT (10/30)
Length of Visible Light 11h 16m
Length of Day
10h 16m
Waxing Crescent, 21% of the Moon is Illuminated
Oct 30
Waxing Crescent
Nov 2
First Quarter
Nov 10
Full
Nov 18
Last Quarter
Nov 24
New

Hourly Weather History & Observations

Time (PDT) Temp. Dew Point Humidity Pressure Visibility Wind Dir Wind Speed Gust Speed Precip Events Conditions
12:21 AM 55.4 °F 53.6 °F 94% 30.20 in 8.0 mi Calm Calm - N/A   Overcast
12:43 AM 55.4 °F 53.6 °F 94% 30.19 in 8.0 mi Calm Calm - N/A   Overcast
12:56 AM 55.9 °F 53.1 °F 90% 30.20 in 7.0 mi Calm Calm - N/A   Overcast
1:18 AM 55.4 °F 53.6 °F 94% 30.19 in 7.0 mi Calm Calm - N/A   Overcast
1:37 AM 55.4 °F 53.6 °F 94% 30.19 in 6.0 mi Calm Calm - N/A   Overcast
2:35 AM 55.4 °F 53.6 °F 94% 30.18 in 3.0 mi Calm Calm - 0.00 in Rain Light Rain
2:42 AM 55.4 °F 53.6 °F 94% 30.18 in 2.5 mi Calm Calm - 0.00 in Rain Light Rain
2:52 AM 55.4 °F 53.6 °F 94% 30.18 in 3.0 mi Calm Calm - 0.00 in   Overcast
3:21 AM 55.4 °F 53.6 °F 94% 30.17 in 3.0 mi Calm Calm - N/A   Overcast
3:38 AM 57.2 °F 55.4 °F 94% 30.17 in 5.0 mi SSE 6.9 mph - 0.00 in Rain Light Rain
4:06 AM 57.2 °F 57.2 °F 100% 30.16 in 10.0 mi SSE 8.1 mph - 0.00 in Rain Light Rain
4:56 AM 59.0 °F 57.0 °F 93% 30.15 in 10.0 mi SSE 6.9 mph - 0.01 in   Overcast
5:05 AM 57.2 °F 55.4 °F 94% 30.16 in 10.0 mi SSE 3.5 mph - N/A   Overcast
5:51 AM 60.8 °F 57.2 °F 88% 30.14 in 10.0 mi SE 5.8 mph - N/A   Overcast
5:56 AM 60.1 °F 57.0 °F 90% 30.14 in 10.0 mi SSE 6.9 mph - N/A   Overcast
6:12 AM 60.8 °F 57.2 °F 88% 30.14 in 10.0 mi South 6.9 mph - N/A   Overcast
6:41 AM 60.8 °F 57.2 °F 88% 30.13 in 10.0 mi South 11.5 mph - N/A   Overcast
7:56 AM 60.1 °F 57.0 °F 90% 30.13 in 10.0 mi South 11.5 mph - 0.00 in   Overcast
8:37 AM 60.8 °F 57.2 °F 88% 30.13 in 5.0 mi South 10.4 mph - 0.01 in Rain Rain
9:29 AM 60.8 °F 57.2 °F 88% 30.13 in 2.0 mi South 11.5 mph - 0.01 in Rain Light Rain
9:52 AM 60.8 °F 57.2 °F 88% 30.14 in 6.0 mi South 12.7 mph - 0.03 in Rain Rain
9:56 AM 60.1 °F 57.9 °F 93% 30.14 in 5.0 mi South 10.4 mph - 0.03 in Rain Light Rain
10:56 AM 60.1 °F 57.9 °F 93% 30.14 in 3.0 mi South 10.4 mph 18.4 mph 0.03 in Rain Light Rain
11:56 AM 61.0 °F 59.0 °F 93% 30.14 in 3.0 mi South 10.4 mph - 0.00 in Rain Light Rain
12:56 PM 62.1 °F 59.0 °F 90% 30.13 in 4.0 mi South 10.4 mph - 0.01 in Rain Light Rain
1:56 PM 63.0 °F 59.0 °F 87% 30.12 in 10.0 mi South 6.9 mph - 0.00 in   Overcast
3:56 PM 62.1 °F 57.9 °F 86% 30.12 in 10.0 mi North 4.6 mph - N/A   Overcast
4:03 PM 62.6 °F 57.2 °F 82% 30.12 in 6.0 mi NNW 3.5 mph - 0.01 in Rain Rain
4:56 PM 60.1 °F 55.9 °F 86% 30.12 in 10.0 mi NW 6.9 mph - 0.02 in   Overcast
5:56 PM 59.0 °F 53.1 °F 81% 30.14 in 10.0 mi WNW 9.2 mph - N/A   Overcast
6:03 PM 57.2 °F 53.6 °F 88% 30.14 in 10.0 mi WNW 11.5 mph - N/A   Overcast
6:56 PM 57.0 °F 48.0 °F 72% 30.15 in 10.0 mi WNW 10.4 mph - N/A   Overcast
7:56 PM 55.9 °F 48.0 °F 75% 30.16 in 10.0 mi WSW 6.9 mph - N/A   Overcast
8:49 PM 55.4 °F 46.4 °F 72% 30.18 in 10.0 mi Calm Calm - N/A   Overcast
8:56 PM 57.0 °F 46.0 °F 67% 30.18 in 10.0 mi Calm Calm - N/A   Overcast
9:56 PM 54.0 °F 48.9 °F 83% 30.20 in 10.0 mi SSW 3.5 mph - N/A   Overcast
10:56 PM 54.0 °F 50.0 °F 86% 30.22 in 10.0 mi Calm Calm - N/A   Overcast
11:05 PM 53.6 °F 50.0 °F 88% 30.23 in 10.0 mi SSE 3.5 mph - N/A   Overcast
11:56 PM 54.0 °F 48.0 °F 80% 30.25 in 10.0 mi Variable 4.6 mph - N/A   Overcast